2023/01/24 00:00:00, 0.0, 2.1
2023/01/24 00:10:00, 0.0, 2.0
2023/01/24 00:20:00, 0.0, 2.0
2023/01/24 00:30:00, 0.0, 2.2
2023/01/24 00:40:00, 0.0, 2.2
2023/01/24 00:50:00, 0.0, 2.0
2023/01/24 01:00:00, 0.0, 2.2
2023/01/24 01:10:00, 0.0, 2.3
2023/01/24 01:20:00, 0.0, 2.1
2023/01/24 01:30:00, 0.0, 2.2
2023/01/24 01:40:00, 0.0, 2.3
2023/01/24 01:50:00, 0.0, 2.3
2023/01/24 02:00:00, 0.0, 2.4
2023/01/24 02:10:00, 0.1, 2.4
2023/01/24 02:20:00, 0.1, 2.3
2023/01/24 02:30:00, 0.1, 2.4
2023/01/24 02:40:00, 0.1, 2.4
2023/01/24 02:50:00, 0.0, 2.8
2023/01/24 03:00:00, 0.0, 2.4
2023/01/24 03:10:00, 0.0, 2.4
2023/01/24 03:20:00, 0.0, 2.5
2023/01/24 03:30:00, 0.0, 2.7
2023/01/24 03:40:00, 0.0, 2.5
2023/01/24 03:50:00, 0.0, 2.5
2023/01/24 04:00:00, 0.0, 2.5
2023/01/24 04:10:00, 0.0, 2.7
2023/01/24 04:20:00, 0.0, 2.3
2023/01/24 04:30:00, 0.1, 2.1
2023/01/24 04:40:00, 0.1, 1.9
2023/01/24 04:50:00, 0.1, 1.9
2023/01/24 05:00:00, 0.1, 1.8
2023/01/24 05:10:00, 0.1, 1.9
2023/01/24 05:20:00, 0.1, 1.8
2023/01/24 05:30:00, 0.1, 1.7
2023/01/24 05:40:00, 0.1, 1.7
2023/01/24 05:50:00, 0.2, 1.7
2023/01/24 06:00:00, 0.2, 1.8
2023/01/24 06:10:00, 0.2, 1.7
2023/01/24 06:20:00, 0.1, 1.8
2023/01/24 06:30:00, 0.1, 1.7
2023/01/24 06:40:00, 0.0, 1.9
2023/01/24 06:50:00, 0.0, 1.6
2023/01/24 07:00:00, 0.0, 2.0
2023/01/24 07:10:00, 0.0, 1.7
2023/01/24 07:20:00, 0.0, 1.4
2023/01/24 07:30:00, 0.0, 1.7
2023/01/24 07:40:00, 0.0, 1.6
2023/01/24 07:50:00, 0.0, 1.6
2023/01/24 08:00:00, 0.0, 1.7
2023/01/24 08:10:00, 0.0, 1.4
2023/01/24 08:20:00, 0.0, 1.3
2023/01/24 08:30:00, 0.0, 1.4
2023/01/24 08:40:00, 0.0, 1.5
2023/01/24 08:50:00, 0.1, 1.4
2023/01/24 09:00:00, 0.3, 1.3
2023/01/24 09:10:00, 0.4, 1.3
2023/01/24 09:20:00, 0.6, 1.3
2023/01/24 09:30:00, 0.8, 1.3
2023/01/24 09:40:00, 0.9, 1.7
2023/01/24 09:50:00, 1.4, 1.2
2023/01/24 10:00:00, 2.1, 1.3
2023/01/24 10:10:00, 2.5, 1.0
2023/01/24 10:20:00, 3.0, 1.1
2023/01/24 10:30:00, 3.5, 1.1
2023/01/24 10:40:00, 3.9, 1.0
2023/01/24 10:50:00, 4.1, 0.6
2023/01/24 11:00:00, 4.8, 0.6
2023/01/24 11:10:00, 5.5, 0.1
2023/01/24 11:20:00, 6.5, 0.4
2023/01/24 11:30:00, 7.1, 0.1
2023/01/24 11:40:00, 7.8,-0.3
2023/01/24 11:50:00, 8.8, 0.3
2023/01/24 12:00:00, 9.1, 1.2
2023/01/24 12:10:00, 9.0, 1.1
2023/01/24 12:20:00, 8.9, 1.0
2023/01/24 12:30:00, 9.0, 1.2
2023/01/24 12:40:00, 9.0, 0.9
2023/01/24 12:50:00, 8.9, 0.7
2023/01/24 13:00:00, 8.9, 1.2
2023/01/24 13:10:00, 8.8, 1.0
2023/01/24 13:20:00, 8.7, 1.5
2023/01/24 13:30:00, 8.7, 1.4
2023/01/24 13:40:00, 8.6, 0.7
2023/01/24 13:50:00, 8.6, 1.5
2023/01/24 14:00:00, 8.6, 3.2
2023/01/24 14:10:00, 8.6, 4.7
2023/01/24 14:20:00, 8.6, 2.3
2023/01/24 14:30:00, 8.6, 1.4
2023/01/24 14:40:00, 8.5,-0.3
2023/01/24 14:50:00, 8.4,-1.3
2023/01/24 15:00:00, 8.6,-1.9
2023/01/24 15:10:00, 8.6,-2.3
2023/01/24 15:20:00, 8.7,-2.3
2023/01/24 15:30:00, 8.9,-2.5
2023/01/24 15:40:00, 9.7,-2.9
2023/01/24 15:50:00,11.2,-2.9
2023/01/24 16:00:00,13.1,-2.9
2023/01/24 16:10:00,15.0,-3.2
2023/01/24 16:20:00,16.2,-3.3
2023/01/24 16:30:00,17.8,-3.5
2023/01/24 16:40:00,19.3,-3.4
2023/01/24 16:50:00,20.7,-3.4
2023/01/24 17:00:00,21.7,-3.6
2023/01/24 17:10:00,22.3,-3.6
2023/01/24 17:20:00,22.5,-3.4
2023/01/24 17:30:00,23.1,-3.4
2023/01/24 17:40:00,23.7,-3.6
2023/01/24 17:50:00,24.8,-3.4
2023/01/24 18:00:00,25.6,-3.5
2023/01/24 18:10:00,27.0,-3.4
2023/01/24 18:20:00,28.1,-3.6
2023/01/24 18:30:00,29.2,-3.6
2023/01/24 18:40:00,30.3,-3.6
2023/01/24 18:50:00,31.4,-3.8
2023/01/24 19:00:00,32.0,-3.7
2023/01/24 19:10:00,33.0,-3.8
2023/01/24 19:20:00,33.6,-3.9
2023/01/24 19:30:00,33.8,-3.9
2023/01/24 19:40:00,34.0,-4.0
2023/01/24 19:50:00,34.5,-4.0
2023/01/24 20:00:00,35.3,-4.1
2023/01/24 20:10:00,36.2,-4.2
2023/01/24 20:20:00,36.8,-4.2
2023/01/24 20:30:00,37.5,-4.2
2023/01/24 20:40:00,37.9,-4.2
2023/01/24 20:50:00,38.2,-4.4
2023/01/24 21:00:00,38.6,-4.2
2023/01/24 21:10:00,39.1,-4.1
2023/01/24 21:20:00,39.7,-4.5
2023/01/24 21:30:00,40.6,-4.4
2023/01/24 21:40:00,40.9,-4.3
2023/01/24 21:50:00,41.3,-4.4
2023/01/24 22:00:00,41.6,-4.6
2023/01/24 22:10:00,41.7,-4.6
2023/01/24 22:20:00,41.8,-4.6
2023/01/24 22:30:00,42.1,-4.8
2023/01/24 22:40:00,42.2,-4.8
2023/01/24 22:50:00,42.6,-4.6
2023/01/24 23:00:00,43.1,-4.6
2023/01/24 23:10:00,43.7,-4.5
2023/01/24 23:20:00,43.9,-4.8
2023/01/24 23:30:00,44.3,-4.7
2023/01/24 23:40:00,44.5,-4.6
2023/01/24 23:50:00,44.7,-4.8
